SCP
0 0 0 0 0 0 0 0 0 0 0 0 0 0 0 0 0 0 0 0 0 0 0 0 0 0 0 0 0 0 0 0 0 0 0 0 0 0 0 0 0 0 0 0 0 0 0 1 1
0 0 0 0 0 0 0 0 0 0 0 0 0 0 0 0 0 0 0 0 0 0 0 0 0 0 0 0 0 0 0 0 0 0 0 0 0 0 0 0 0 0 0 0 0 0 0 0 1
0 0 0 0 0 0 0 0 -0 0 0 0 0 0 0 0 0 0 0 0 0 0 0 0 0 0 0 0 0 0 0 0 0 0 0 0 0 0 0 0 0 0 0 0 0 0 0 0 0
0 0 0 0 0 0 0 0 0 0 0 0 0 0 0 0 0 0 0 0 0 0 0 0 0 0 0 0 0 0 0 0 0 0 0 0 0 0 0 0 0 0 0 0 0 0 0 0 0
0 0 0 0 0 0 0 -0 0 0 0 0 0 0 0 0 0 0 0 0 0 0 0 0 0 0 0 0 0 0 0 0 0 0 0 0 0 0 0 0 0 0 0 0 0 0 0 0 0
0 0 0 0 0 0 0 0 0 0 0 0 0 0 0 0 0 0 0 0 0 0 0 0 0 0 0 0 0 0 0 0 0 0 0 0 0 0 0 0 0 0 0 0 0 0 0 0 0
0 0 0 0 0 0 0 0 0 0 0 0 0 0 0 0 0 0 0 0 0 0 0 0 0 0 0 0 0 0 0 0 0 0 0 0 0 0 0 0 0 0 0 0 0 0 0 0 0
0 0 0 0 0 0 0 0 0 0 0 0 0 0 0 0 0 0 0 0 0 0 0 0 0 0 0 0 0 0 0 0 0 0 0 0 0 0 0 0 0 0 0 0 0 0 0 0 0
0 0 0 0 0 0 0 0 0 0 0 0 0 0 0 0 1 0 0 0 0 0 0 0 0 0 0 0 0 0 0 0 0 0 0 0 0 0 0 0 0 0 0 0 0 0 0 0 0
0 0 0 0 0 0 0 0 0 0 0 0 0 0 0 0 1 0 0 0 0 0 0 0 0 0 0 0 0 0 0 0 0 0 0 0 0 0 0 0 0 0 0 0 0 0 0 0 0
0 0 0 0 0 0 0 0 0 0 0 0 0 0 0 1 1 0 0 0 0 0 0 0 0 0 0 0 0 0 0 0 0 0 0 0 0 0 0 0 0 0 0 0 0 0 0 0 0
0 0 0 0 0 0 0 0 0 0 0 0 0 0 0 0 0 0 0 0 0 0 0 0 0 0 0 0 0 0 0 0 0 0 0 0 0 0 0 0 0 0 0 0 0 0 0 0 0
0 0 0 0 0 0 0 0 0 0 0 0 0 0 0 0 0 0 0 0 0 0 0 0 0 0 0 0 0 0 0 0 0 0 0 0 0 0 0 0 0 0 0 0 0 0 0 0 0
0 0 0 0 0 0 0 0 0 0 0 0 0 0 0 0 0 0 0 0 0 0 0 0 0 0 0 0 0 0 0 0 0 0 0 0 0 0 0 0 0 0 0 0 0 0 0 0 0
0 0 0 0 0 0 0 0 0 0 0 0 0 0 0 0 0 0 0 0 0 0 0 0 0 0 0 0 0 0 0 0 0 0 0 0 0 0 0 0 0 0 0 0 0 0 0 0 0
0 0 0 0 0 0 0 0 0 0 0 0 0 0 0 0 0 0 0 0 0 0 0 0 0 0 0 0 0 0 0 0 0 0 0 0 0 0 0 0 0 0 0 0 0 0 0 0 0
0 0 0 0 0 0 0 0 0 0 0 0 0 0 0 0 0 0 0 0 0 0 0 0 0 1 1 1 1 0 1 1 1 1 0 0 0 0 0 0 0 0 0 0 0 0 0 0 0
0 0 0 0 0 0 0 0 0 0 0 0 0 0 0 0 0 0 0 0 0 0 0 0 0 1 1 1 1 1 1 1 1 1 1 0 0 0 0 1 0 0 0 0 0 0 0 0 0
0 0 0 0 0 0 0 0 0 0 0 0 0 0 0 0 0 0 0 0 1 1 0 0 1 1 2 2 2 2 2 2 1 1 1 1 1 1 1 1 1 0 0 0 0 0 0 0 0
0 0 0 0 0 0 0 0 0 0 0 0 0 0 0 0 0 1 1 1 1 1 1 1 1 2 2 3 4 4 3 3 2 2 1 1 1 1 1 1 1 0 0 0 0 0 0 0 0
0 0 0 0 0 0 0 0 0 0 0 0 0 0 0 0 0 1 1 2 2 2 2 1 1 2 3 4 5 5 4 4 3 2 2 1 1 1 1 1 1 0 0 1 0 0 0 0 0
0 0 0 0 0 0 0 0 0 0 0 0 0 0 0 0 0 0 1 2 2 3 3 2 2 3 4 4 5 5 5 4 4 3 2 2 1 1 1 1 1 1 1 1 0 0 0 0 0
0 0 0 0 0 0 0 0 0 0 0 0 0 0 0 0 0 0 1 1 2 2 3 3 3 3 4 4 5 5 5 4 4 4 3 2 2 1 1 1 1 1 1 0 0 0 0 0 0
0 0 0 0 0 0 0 0 0 0 0 0 0 0 0 0 0 0 0 1 1 2 2 3 3 3 4 4 5 5 5 5 4 4 3 3 2 1 1 1 1 1 0 0 0 0 0 0 0
0 0 0 0 0 0 0 0 0 0 0 0 0 0 0 0 0 0 0 0 1 1 2 2 3 3 3 4 4 5 5 5 4 4 3 3 2 1 1 1 1 1 0 0 0 0 0 0 0
0 0 0 0 0 0 0 0 0 0 0 0 0 0 0 0 0 0 0 0 1 1 1 2 2 2 2 3 4 4 4 4 4 4 3 2 2 1 1 1 1 1 0 0 0 0 0 0 0
0 0 0 0 0 0 0 0 0 0 0 0 0 0 0 0 0 0 0 0 1 1 1 1 1 1 1 2 2 3 3 3 2 3 3 2 1 1 1 1 1 0 0 0 1 1 0 0 0
0 0 0 0 0 0 0 0 0 0 0 0 0 0 0 0 0 0 0 0 0 1 1 0 0 0 0 1 1 1 1 1 1 1 1 1 1 0 0 0 0 0 0 0 1 1 0 0 0
0 0 0 0 0 0 0 0 0 0 0 0 0 0 0 0 0 0 0 0 0 0 0 0 0 0 0 0 0 0 0 1 1 1 0 0 0 0 0 0 0 0 0 0 0 0 0 0 0
0 0 0 0 0 0 0 0 0 0 0 0 0 0 0 0 0 0 0 0 0 0 0 0 0 0 0 0 0 0 0 0 0 0 0 0 0 0 0 0 0 0 0 0 0 0 0 0 0
Wind_Speed
3 2 3 3 3 6 10 6 5 5 5 5 4 3 4 6 5 5 7 11 13 15 14 17 15 15 15 14 13 13 12 12 12 11 10 10 10 9 8 8 8 7 7 7 7 7 6 6 6
3 1 3 4 2 9 10 5 6 5 7 5 4 3 3 6 5 7 10 10 14 14 13 14 16 15 15 14 13 12 12 12 12 11 11 10 9 9 8 9 8 7 7 7 7 6 6 6 6
2 3 3 0 5 8 8 5 5 6 4 1 2 2 3 5 6 8 9 13 15 14 12 13 14 13 14 14 13 13 12 12 12 12 11 10 8 8 7 8 9 8 8 8 8 7 7 6 6
4 3 3 2 8 6 4 3 2 5 2 1 1 3 4 6 5 7 11 14 15 13 12 13 13 13 13 13 13 13 12 12 12 12 10 9 8 7 6 7 9 9 9 9 9 9 9 8 7
4 4 3 5 6 4 2 2 1 3 1 0 1 1 5 6 6 9 12 14 14 13 12 13 13 12 12 13 13 13 14 14 13 12 10 9 8 7 5 6 8 9 9 9 9 9 10 10 9
4 4 3 4 6 4 2 1 3 4 2 2 2 1 6 7 8 10 11 12 13 12 11 12 12 11 12 12 13 14 14 14 14 13 11 10 9 7 7 7 8 8 9 9 9 9 9 9 9
4 2 3 4 5 5 2 1 3 2 3 2 2 1 5 8 9 11 11 10 11 12 11 10 12 13 12 11 12 13 14 15 15 13 12 11 10 9 7 8 8 8 8 7 7 7 7 8 8
4 2 5 4 4 4 3 1 1 2 1 2 3 2 2 10 11 11 11 10 10 10 10 10 10 10 11 11 12 12 13 15 14 13 13 12 11 9 8 8 8 7 8 6 6 6 6 7 8
5 4 3 3 2 4 3 2 2 1 2 4 2 3 4 14 14 13 11 11 10 9 9 10 9 9 9 10 11 11 11 13 13 12 12 12 10 10 9 8 8 7 8 6 5 5 5 4 8
3 3 3 3 3 2 3 3 1 3 4 4 4 3 7 15 15 15 14 13 13 12 11 9 9 9 9 8 8 8 9 10 10 10 11 9 6 5 4 11 7 8 9 7 5 4 5 7 5
2 2 3 3 2 2 2 2 2 3 3 3 3 4 11 14 15 15 14 12 11 11 10 9 9 9 9 7 6 6 5 7 8 10 11 7 6 5 5 6 9 9 9 7 7 8 4 3 2
2 3 2 3 3 3 4 4 4 3 5 8 7 4 12 15 16 15 14 12 10 10 10 10 10 9 9 7 6 5 5 6 6 8 11 7 5 5 5 4 5 6 4 3 3 2 4 3 5
1 1 2 2 3 3 4 3 4 4 10 10 8 6 13 15 14 13 12 11 10 10 10 10 10 9 8 7 5 6 7 7 6 5 7 8 6 6 5 4 4 5 4 6 4 3 4 3 2
3 3 2 2 3 2 5 4 2 8 10 9 6 3 9 12 12 11 11 11 11 11 11 11 11 10 9 8 7 6 6 6 7 7 9 9 6 5 5 5 5 5 5 5 5 4 3 3 2
3 5 5 1 2 2 6 1 8 11 10 9 8 5 4 8 10 11 11 11 11 11 12 11 11 11 10 9 8 6 6 7 7 7 9 9 8 7 6 5 5 5 6 7 4 3 2 2 3
6 7 7 3 2 2 7 2 10 11 10 9 9 7 5 6 9 11 12 12 12 11 11 11 10 11 11 9 9 7 7 8 7 7 7 10 10 8 6 5 5 5 6 5 4 4 4 4 3
8 8 6 2 2 2 4 1 8 10 9 8 9 9 8 7 7 7 10 11 12 12 12 12 14 13 12 12 9 8 8 8 7 7 7 9 10 9 7 5 4 7 6 6 5 5 4 4 3
5 5 4 3 2 4 2 1 5 7 9 9 9 9 9 10 9 9 8 10 11 12 12 14 13 13 13 11 9 8 8 8 7 7 7 9 8 9 7 6 7 7 5 5 5 6 5 4 4
5 7 7 3 2 4 3 1 3 6 8 9 10 11 11 12 12 11 10 9 9 11 13 14 14 14 12 11 10 9 9 8 7 7 8 9 9 9 8 6 7 6 6 7 9 7 7 6 5
6 8 8 3 1 5 5 3 4 5 9 10 11 12 13 15 15 14 12 10 9 10 14 16 16 15 15 11 11 10 9 8 7 6 8 9 10 9 8 8 7 8 8 10 11 9 7 6 5
6 7 8 8 4 6 8 8 7 2 4 9 10 12 13 15 16 16 15 12 10 9 11 11 13 13 13 13 9 8 8 5 6 7 7 9 9 9 8 9 8 8 7 6 7 9 10 7 7
8 7 9 9 9 8 6 8 6 1 3 9 12 13 15 15 15 15 14 12 11 11 10 8 8 10 11 11 10 12 8 5 5 5 6 8 9 8 8 9 8 7 6 7 8 8 7 8 7
10 10 10 11 12 12 10 10 4 2 4 10 14 15 15 15 14 14 13 11 10 9 8 4 3 6 8 8 8 8 6 4 3 1 3 6 6 7 7 7 7 7 7 7 7 7 8 7 7
12 12 12 10 10 15 13 12 4 4 8 12 15 15 15 14 14 13 11 10 9 9 7 4 5 6 7 8 9 9 10 10 6 2 2 2 2 4 7 7 7 7 6 7 7 7 8 8 8
13 11 6 7 8 7 4 6 6 9 9 12 14 15 15 13 13 13 12 10 9 9 8 6 7 8 6 6 7 8 8 10 9 4 0 2 3 5 8 8 8 7 7 7 7 7 7 9 9
11 10 7 7 6 5 5 3 7 8 9 11 12 13 14 14 12 12 12 9 7 6 6 5 8 9 8 6 7 8 7 6 6 5 1 3 5 5 7 8 7 8 8 7 7 6 7 7 8
11 8 7 8 9 8 4 3 5 9 13 14 14 15 15 15 12 11 11 9 8 7 6 4 6 8 7 7 8 8 8 8 6 3 1 4 5 5 6 7 8 8 8 8 7 6 8 7 7
8 8 6 5 7 6 4 4 9 18 19 18 17 16 15 14 10 9 9 10 11 10 9 7 6 6 5 6 7 7 9 8 4 1 4 6 5 5 6 8 9 9 9 9 8 7 6 7 6
10 6 5 3 2 5 4 2 7 13 14 14 14 13 13 12 9 9 9 9 10 10 10 8 5 4 5 6 7 7 6 4 1 2 5 4 3 5 6 7 8 9 9 9 8 8 7 7 7
8 7 6 5 4 4 4 2 7 12 11 11 11 11 11 10 10 10 10 11 11 10 9 7 5 5 5 6 6 5 4 2 2 4 3 2 1 3 5 6 7 8 8 8 8 8 7 7 7
Wind_Direction
255 217 226 249 217 87 80 77 71 77 78 72 67 63 41 26 358 38 110 148 145 150 151 155 160 161 161 160 158 154 150 145 140 139 141 135 130 128 124 118 102 89 83 84 81 80 83 81 81
316 259 256 261 109 91 82 77 79 72 92 94 86 79 77 76 60 100 138 151 155 152 156 158 158 165 168 167 165 161 158 154 151 147 139 133 132 130 124 114 107 98 86 78 73 68 71 76 76
246 260 287 281 78 77 85 67 69 113 116 65 94 59 38 66 105 128 137 153 156 156 159 150 159 165 170 173 173 167 165 160 156 150 144 141 136 128 121 116 111 100 89 81 74 67 63 70 83
249 236 235 135 100 83 78 77 75 144 171 70 133 112 83 64 107 118 138 154 157 161 161 155 167 171 174 175 173 168 166 164 162 157 154 150 143 135 130 125 117 107 96 86 78 70 58 55 71
262 253 170 127 108 94 77 352 244 183 142 110 282 100 106 97 105 125 145 155 160 163 165 161 171 175 177 176 176 174 169 166 164 161 157 149 139 135 135 134 131 122 110 96 86 78 65 50 51
260 248 174 131 109 118 137 179 205 202 170 203 256 168 105 123 140 145 148 158 161 165 169 163 168 182 184 183 182 180 173 167 164 161 157 150 141 136 133 132 124 118 110 103 93 82 72 61 52
278 243 147 127 132 128 84 325 222 202 201 198 229 177 124 148 149 152 153 161 166 170 176 176 174 181 186 188 186 181 173 167 163 162 159 154 147 142 137 132 129 128 119 110 99 84 70 63 59
298 233 145 140 151 110 65 133 232 242 151 112 200 275 128 157 155 157 158 167 175 181 185 186 184 182 180 182 184 181 175 169 164 163 162 158 152 150 149 155 135 137 128 117 99 84 77 70 69
283 246 168 125 114 92 44 108 110 290 173 183 211 358 53 145 160 166 169 177 183 191 193 191 191 182 182 182 174 179 179 173 165 164 165 173 175 163 172 132 137 149 130 114 100 88 87 106 105
281 279 73 46 8 37 25 22 31 211 217 215 183 125 137 155 171 181 186 187 188 192 196 196 197 186 187 185 171 181 184 179 184 175 173 195 178 162 149 121 149 141 129 132 117 120 175 226 149
331 35 83 74 17 330 325 356 343 276 255 291 297 175 167 175 185 194 197 194 192 194 194 203 202 195 189 187 178 183 179 184 192 180 173 192 173 169 174 161 164 160 166 165 151 196 180 180 107
333 48 24 39 10 334 332 324 317 297 356 350 323 264 190 192 195 201 202 198 192 198 196 199 206 202 202 192 183 184 181 186 187 191 181 183 187 190 172 193 165 157 171 160 184 199 169 191 170
296 35 55 31 14 349 314 302 304 23 354 330 315 245 210 205 203 206 209 202 198 198 200 201 203 207 203 200 191 189 192 191 188 197 196 189 191 193 179 187 176 184 168 172 185 205 161 197 187
357 321 307 313 315 309 305 293 317 29 357 1 355 291 230 224 222 215 216 216 207 204 206 198 202 205 204 199 203 198 194 184 189 192 205 197 194 197 196 190 189 190 184 180 192 187 172 185 161
272 272 255 239 332 359 298 133 38 8 356 8 7 7 301 260 247 243 233 232 229 215 213 202 204 204 205 205 203 196 194 187 198 197 202 201 199 200 202 204 193 193 191 191 205 173 188 154 162
245 249 244 125 16 357 288 194 39 5 359 358 350 348 336 295 268 257 252 244 244 237 226 208 202 207 205 202 199 197 197 191 195 194 206 205 202 207 207 214 207 200 195 198 193 209 196 178 194
227 250 262 170 69 332 294 336 38 20 13 4 352 339 329 320 303 281 268 261 252 244 238 224 211 206 202 199 197 198 198 193 197 197 203 210 205 208 207 213 215 199 202 208 202 211 214 205 202
278 266 257 268 56 306 272 82 53 30 19 9 358 345 335 326 321 313 298 282 268 256 238 234 222 213 202 196 196 191 199 196 199 201 206 212 209 211 212 208 211 202 205 218 228 222 230 242 228
296 274 271 299 15 295 286 328 74 35 22 11 2 355 346 338 330 322 303 285 264 250 246 238 226 213 205 193 194 189 192 192 195 203 209 211 213 216 220 222 216 209 212 217 228 232 233 235 233
276 276 281 275 214 278 273 255 127 52 29 18 3 357 353 346 342 338 325 305 293 256 239 234 226 215 207 200 195 191 189 190 185 192 206 215 217 215 220 221 220 218 222 231 234 230 240 235 226
295 308 306 296 271 235 262 233 176 124 20 21 15 3 359 355 346 342 337 334 325 300 262 241 225 208 199 197 190 176 165 157 166 186 201 213 217 214 216 217 218 223 218 224 226 223 227 220 214
312 354 313 288 267 251 239 275 181 77 16 16 11 5 2 358 352 347 344 344 345 334 313 264 211 194 186 182 182 180 175 164 171 176 189 200 206 207 208 213 216 218 212 212 211 212 218 224 221
333 320 297 282 269 266 240 258 220 113 11 7 3 359 359 356 353 351 351 347 345 344 342 340 137 150 155 162 169 153 126 96 66 68 192 189 193 198 198 201 204 215 208 213 208 209 222 226 234
329 301 273 250 253 252 255 254 231 61 8 355 355 355 354 349 344 345 350 350 349 357 6 30 100 121 138 152 153 143 132 118 99 54 263 210 189 193 193 198 206 206 203 205 209 213 222 235 240
351 333 289 253 237 252 350 270 76 44 15 2 353 351 348 342 341 343 345 349 348 354 10 36 72 72 83 118 124 122 125 119 118 116 315 262 223 211 203 201 203 201 203 205 207 215 226 230 238
349 346 338 309 303 312 298 290 92 29 15 4 359 354 347 346 348 350 349 349 352 349 2 35 65 59 54 77 96 108 114 106 105 107 114 255 246 229 213 204 199 197 201 202 207 223 228 241 239
347 357 341 299 292 283 268 124 123 6 1 359 358 353 349 347 353 1 2 3 5 8 8 34 79 71 55 63 81 90 94 90 91 95 233 246 240 229 205 195 195 196 200 206 208 227 232 241 247
3 329 318 327 320 306 314 28 1 348 343 343 346 340 339 339 353 10 10 11 13 17 22 39 76 88 70 63 70 80 81 80 79 28 268 253 224 200 191 193 194 191 194 198 206 219 226 234 240
4 1 335 318 313 306 313 22 358 324 324 326 324 328 335 340 0 15 10 4 359 1 5 13 44 76 81 81 81 83 84 82 50 285 267 256 220 198 200 209 205 191 190 192 193 209 203 218 220
17 10 346 344 346 306 296 353 350 334 342 341 342 350 1 11 21 15 5 357 352 348 350 1 28 56 73 77 78 83 83 85 261 256 246 230 209 214 214 211 217 204 198 197 194 201 203 212 219